Location: Innsbruck
(47.2657°N, 11.3914°E)
Time: 19:49:49
(UTC+01:00)

BEESAT 3 - Pass Details

Date: 14 December 2021
Orbit: 472 x 512 km, 64.9° (Epoch: 22 January)

Event Time Altitude Azimuth Distance (km) Brightness Sun altitude
Rises 17:20:07 0° 227° (SW) 2,552 ? -9.0°
Reaches altitude 10° 17:22:16 10° 231° (SW) 1,682 ? -9.4°
Maximum altitude 17:25:58 56° 311° (NW) 596 ? -9.9°
Drops below altitude 10° 17:29:45 10° 30° (NNE) 1,719 ? -10.5°
Enters shadow 17:29:48 10° 31° (NNE) 1,735 ? -10.5°
